COSMOS 1285 DEB, 26680

Orbit data source: Space-Track

COSMOS 1285 DEB, 26680 is space debris originally from a launch on Tue, 04 Aug 1981 UTC launched from the Plesetsk Missile And Space Complex (PKMTR). Debris objects in space refer to the collection of defunct objects orbiting the Earth. Examples of debris include non-operational satellites, rocket bodies, and fragments generated from explosions, collisions, or faulty payload assembly.

Loading next visibility...
COSMOS 1285 DEB details
Identifier
26680, 1981-071L
Orbit
Molniya
Last TLE update18 hours ago
Origin
Flag of CISRVSN (CIS)
ManufacturerUnknown
MissionSpacecraft
Bus & MotorUnknown
MassUnknown
Launch date (UTC)
1981-08-04 (43 years ago)
Launch vehicleUnknown
Launch site
Plesetsk Missile And Space Complex (PKMTR)
Object type
Payload
Rocket body
Debris
Shape & HBRUnknown
Radar Cross SectionMedium (>0.1 m² and <1 m²)

Expand to show TLE details & history

TLE from 18 hours ago
0 COSMOS 1285 DEB
1 26680U 81071L   24361.20141023 -.00000519  00000-0  00000-0 0  9994
2 26680  63.6067  83.0542 7289827  43.3993 354.8652  1.98230736197333
Epoch: 2024-12-26T04:50Z
Definitive object data (Epoch: 2024-12-26T04:50:01.843Z)
Latitude0.00023°
Longitude-84.56321°
Altitude1,799.104 km
Speed9.089 km/s
True Right ascension05h 32m 30s
True Declination0° 00' 01"
Sunlit
Object was in full shadow at TLE epoch
Visualization TLE readout
Latitude-38.31861°
Longitude118.32055°
Altitude39,931.59 km
Speed1.525 km/s
Apparent Right ascension18h 37m 17s
Apparent Declination-44° 15' 14"
Sunlit
Object is in daylight
Visualization observer readout
Local Sidereal Time22:36:27
Azimuth218.924° SW
Elevation-9.868°
Doppler factor1
Orbital elements
Apogee altitude39,902.055 km
Perigee altitude876.263 km
Semi-major axis26,767.296 km
Eccentricity0.7289827
Inclination63.6067°
RAAN83.0542°
Arg. of periapsis43.3993°
True anomaly316.08969°
Mean anomaly354.8652°
Eccentric anomaly341.86413°
Mean motion0.49561 °/min
BSTARUnknown
Orbital period726.38 mins
Loading maneuver chart data...
Loading historical data...
Loading historical data...
Loading historical data...
Loading historical data...
Loading historical data...
Loading historical data...
Loading historical data...

COSMOS 1285 DEB Visibility forecast

Observer location: undefined°, undefined

Span
Click to sort rows by Start time (UTC) header in descending order
Start Az.
Max El. time (UTC)
Max El. Az.
Max El.
End time (UTC)
End Az.
213 mins2024-12-27 17:36:10.478Z318.686° NNW2024-12-27 17:56:10.478Z244.97° WSW41.888°2024-12-27 21:09:10.478Z211.935° SW
|